TimeEST,TemperatureF,Dew PointF,Humidity,Sea Level PressureIn,VisibilityMPH,Wind Direction,Wind SpeedMPH,Gust SpeedMPH,PrecipitationIn,Events,Conditions,WindDirDegrees,DateUTC
12:17 AM,19.4,15.8,86,29.80,5.0,Calm,Calm,-,0.00,Snow,Light Snow,0,2013-02-05 05:17:00
12:40 AM,19.4,15.8,86,29.80,5.0,Calm,Calm,-,0.00,Snow,Light Snow,0,2013-02-05 05:40:00
12:53 AM,19.9,16.0,85,29.89,6.0,Calm,Calm,-,0.00,Snow,Light Snow,0,2013-02-05 05:53:00
1:53 AM,19.9,16.0,85,29.89,4.0,Calm,Calm,-,0.00,Snow,Light Snow,0,2013-02-05 06:53:00
2:19 AM,19.4,17.6,93,29.80,4.0,Calm,Calm,-,0.00,Snow,Light Snow,0,2013-02-05 07:19:00
2:32 AM,19.4,17.6,93,29.79,4.0,Calm,Calm,-,0.00,Snow,Light Snow,0,2013-02-05 07:32:00
2:53 AM,19.9,17.1,89,29.88,3.0,Calm,Calm,-,0.00,Snow,Light Snow,0,2013-02-05 07:53:00
3:53 AM,19.0,16.0,88,29.87,5.0,SSE,3.5,-,0.00,Snow,Light Snow,160,2013-02-05 08:53:00
4:53 AM,19.0,16.0,88,29.88,3.0,Calm,Calm,-,0.00,Snow,Light Snow,0,2013-02-05 09:53:00
5:53 AM,19.0,16.0,88,29.88,4.0,Calm,Calm,-,0.00,Snow,Light Snow,0,2013-02-05 10:53:00
6:53 AM,19.0,16.0,88,29.90,6.0,Calm,Calm,-,0.00,,Overcast,0,2013-02-05 11:53:00
7:07 AM,19.4,15.8,86,29.80,6.0,Calm,Calm,-,N/A,,Overcast,0,2013-02-05 12:07:00
7:53 AM,19.9,16.0,85,29.91,4.0,Calm,Calm,-,N/A,,Overcast,0,2013-02-05 12:53:00
8:53 AM,19.9,16.0,85,29.92,4.0,East,3.5,-,N/A,,Overcast,80,2013-02-05 13:53:00
9:53 AM,21.0,17.1,85,29.94,3.0,Calm,Calm,-,0.00,Snow,Light Snow,0,2013-02-05 14:53:00
10:03 AM,21.2,17.6,86,29.84,2.5,ESE,4.6,-,0.00,Snow,Light Snow,120,2013-02-05 15:03:00
10:31 AM,21.2,17.6,86,29.85,3.0,Variable,5.8,-,0.00,,Overcast,0,2013-02-05 15:31:00
10:51 AM,21.2,17.6,86,29.84,3.0,ESE,4.6,-,0.00,,Haze,120,2013-02-05 15:51:00
11:30 AM,21.2,17.6,86,29.83,5.0,East,3.5,-,N/A,,Overcast,100,2013-02-05 16:30:00
11:53 AM,21.9,18.0,85,29.91,6.0,SE,5.8,-,N/A,,Overcast,130,2013-02-05 16:53:00
12:53 PM,24.1,18.0,77,29.89,7.0,SE,3.5,-,N/A,,Overcast,130,2013-02-05 17:53:00
1:28 PM,24.8,19.4,80,29.80,8.0,SE,6.9,-,N/A,,Mostly Cloudy,140,2013-02-05 18:28:00
1:53 PM,24.1,19.0,81,29.87,7.0,SE,5.8,-,N/A,,Overcast,130,2013-02-05 18:53:00
2:38 PM,24.8,19.4,80,29.79,6.0,SE,5.8,-,N/A,,Haze,130,2013-02-05 19:38:00
2:53 PM,24.1,19.0,81,29.88,6.0,SSE,5.8,-,N/A,,Haze,160,2013-02-05 19:53:00
3:19 PM,24.8,19.4,80,29.79,4.0,SSE,4.6,-,0.00,Snow,Light Snow,160,2013-02-05 20:19:00
3:48 PM,24.8,19.4,80,29.78,2.0,SE,5.8,-,0.00,Snow,Light Snow,130,2013-02-05 20:48:00
3:53 PM,23.0,19.0,85,29.87,1.8,SE,6.9,-,0.00,Snow,Light Snow,140,2013-02-05 20:53:00
4:08 PM,23.0,19.4,86,29.78,1.2,SE,5.8,-,0.00,Snow,Light Snow,140,2013-02-05 21:08:00
4:26 PM,23.0,19.4,86,29.78,1.8,SE,6.9,-,0.00,Snow,Light Snow,140,2013-02-05 21:26:00
4:35 PM,23.0,19.4,86,29.78,1.5,SSE,5.8,-,0.00,Snow,Light Snow,150,2013-02-05 21:35:00
4:48 PM,23.0,19.4,86,29.77,1.5,SSE,4.6,-,0.00,Snow,Light Snow,150,2013-02-05 21:48:00
4:53 PM,23.0,19.9,88,29.86,1.8,SSE,4.6,-,0.00,Snow,Light Snow,150,2013-02-05 21:53:00
5:01 PM,23.0,19.4,86,29.77,1.5,SSE,3.5,-,0.00,Snow,Light Snow,150,2013-02-05 22:01:00
5:08 PM,23.0,19.4,86,29.77,1.8,SSE,5.8,-,0.00,Snow,Light Snow,160,2013-02-05 22:08:00
5:40 PM,23.0,19.4,86,29.78,2.5,SE,3.5,-,0.00,Snow,Light Snow,140,2013-02-05 22:40:00
5:53 PM,21.9,19.9,92,29.86,4.0,SE,3.5,-,0.00,,Overcast,130,2013-02-05 22:53:00
6:13 PM,23.0,19.4,86,29.77,1.8,ESE,3.5,-,0.00,Snow,Light Snow,120,2013-02-05 23:13:00
6:22 PM,23.0,19.4,86,29.77,1.2,SE,3.5,-,0.00,Snow,Light Snow,130,2013-02-05 23:22:00
6:35 PM,23.0,19.4,86,29.78,2.0,SE,3.5,-,0.00,Snow,Light Snow,130,2013-02-05 23:35:00
6:41 PM,23.0,19.4,86,29.78,1.8,SE,3.5,-,0.00,Snow,Light Snow,130,2013-02-05 23:41:00
6:53 PM,23.0,21.0,92,29.88,1.5,SE,3.5,-,0.00,Snow,Light Snow,140,2013-02-05 23:53:00
7:26 PM,23.0,19.4,86,29.79,2.5,SSE,3.5,-,0.00,Snow,Light Snow,150,2013-02-06 00:26:00
7:53 PM,23.0,19.9,88,29.88,3.0,Calm,Calm,-,0.00,,Overcast,0,2013-02-06 00:53:00
8:12 PM,23.0,21.2,93,29.80,4.0,Calm,Calm,-,N/A,,Overcast,0,2013-02-06 01:12:00
8:49 PM,24.8,21.2,86,29.80,2.5,Calm,Calm,-,N/A,,Overcast,0,2013-02-06 01:49:00
8:53 PM,24.1,21.9,91,29.88,2.5,South,3.5,-,N/A,,Overcast,190,2013-02-06 01:53:00
9:03 PM,24.8,21.2,86,29.80,3.0,SSW,3.5,-,N/A,,Overcast,200,2013-02-06 02:03:00
9:29 PM,24.8,21.2,86,29.80,3.0,SW,3.5,-,N/A,,Overcast,230,2013-02-06 02:29:00
9:42 PM,24.8,21.2,86,29.80,2.5,SW,4.6,-,N/A,,Overcast,230,2013-02-06 02:42:00
9:53 PM,24.1,21.9,91,29.89,2.5,West,3.5,-,0.00,,Overcast,260,2013-02-06 02:53:00
10:35 PM,24.8,21.2,86,29.81,3.0,WSW,4.6,-,N/A,,Overcast,250,2013-02-06 03:35:00
10:46 PM,24.8,23.0,93,29.81,2.5,WSW,4.6,-,0.00,,Overcast,250,2013-02-06 03:46:00
10:53 PM,25.0,23.0,92,29.89,2.5,WSW,4.6,-,0.00,Rain,Light Freezing Rain,250,2013-02-06 03:53:00
11:16 PM,24.8,23.0,93,29.81,2.5,West,5.8,-,0.00,,Overcast,270,2013-02-06 04:16:00
11:53 PM,25.0,23.0,92,29.89,2.5,West,4.6,-,0.00,,Overcast,280,2013-02-06 04:53:00